owner,sensor,date,latitude,longitude,vertical_datum,wind_speed,wind_to_direction,wind_speed_of_gust,qcFlag 
DISL,ioos:station:DISL:MHPA:1,2009-11-02T00:00:00Z,30.6671,-87.9365,8.5,0.93,48.97,-9999.0,'1111122,1111122,1111122' 
DISL,ioos:station:DISL:MHPA:1,2009-11-02T00:30:00Z,30.6671,-87.9365,8.5,1.12,41.51,-9999.0,'1111122,1111122,1111122' 
DISL,ioos:station:DISL:MHPA:1,2009-11-02T01:00:00Z,30.6671,-87.9365,8.5,0.69,11.98,-9999.0,'1111122,1111122,1111122' 
DISL,ioos:station:DISL:MHPA:1,2009-11-02T01:30:00Z,30.6671,-87.9365,8.5,1.15,16.26,-9999.0,'1111122,1111122,1111122' 
DISL,ioos:station:DISL:MHPA:1,2009-11-02T02:00:00Z,30.6671,-87.9365,8.5,1.25,12.58,-9999.0,'1111122,1111122,1111122' 
DISL,ioos:station:DISL:MHPA:1,2009-11-02T02:30:00Z,30.6671,-87.9365,8.5,1.34,28.87,-9999.0,'1111122,1111122,1111122' 
DISL,ioos:station:DISL:MHPA:1,2009-11-02T03:00:00Z,30.6671,-87.9365,8.5,0.96,16.0,-9999.0,'1111122,1111122,1111122' 
DISL,ioos:station:DISL:MHPA:1,2009-11-02T03:30:00Z,30.6671,-87.9365,8.5,1.27,20.91,-9999.0,'1111122,1111122,1111122' 
DISL,ioos:station:DISL:MHPA:1,2009-11-02T04:00:00Z,30.6671,-87.9365,8.5,1.05,17.36,-9999.0,'1111122,1111122,1111122' 
DISL,ioos:station:DISL:MHPA:1,2009-11-02T04:30:00Z,30.6671,-87.9365,8.5,0.54,36.26,-9999.0,'1111122,1111122,1111122' 
DISL,ioos:station:DISL:MHPA:1,2009-11-02T05:00:00Z,30.6671,-87.9365,8.5,1.12,18.7,-9999.0,'1111122,1111122,1111122' 
DISL,ioos:station:DISL:MHPA:1,2009-11-02T05:30:00Z,30.6671,-87.9365,8.5,1.36,13.46,-9999.0,'1111122,1111122,1111122' 
DISL,ioos:station:DISL:MHPA:1,2009-11-02T06:00:00Z,30.6671,-87.9365,8.5,2.08,1.3,-9999.0,'1111122,1111122,1111122' 
DISL,ioos:station:DISL:MHPA:1,2009-11-02T06:30:00Z,30.6671,-87.9365,8.5,1.61,13.15,-9999.0,'1111122,1111122,1111122' 
DISL,ioos:station:DISL:MHPA:1,2009-11-02T07:00:00Z,30.6671,-87.9365,8.5,1.78,1.944,-9999.0,'1111122,1111122,1111122' 
DISL,ioos:station:DISL:MHPA:1,2009-11-02T07:30:00Z,30.6671,-87.9365,8.5,1.65,7.72,-9999.0,'1111122,1111122,1111122' 
DISL,ioos:station:DISL:MHPA:1,2009-11-02T08:00:00Z,30.6671,-87.9365,8.5,1.94,5.068,-9999.0,'1111122,1111122,1111122' 
DISL,ioos:station:DISL:MHPA:1,2009-11-02T08:30:00Z,30.6671,-87.9365,8.5,1.99,3.397,-9999.0,'1111122,1111122,1111122' 
DISL,ioos:station:DISL:MHPA:1,2009-11-02T09:00:00Z,30.6671,-87.9365,8.5,1.85,9.42,-9999.0,'1111122,1111122,1111122' 
DISL,ioos:station:DISL:MHPA:1,2009-11-02T09:30:00Z,30.6671,-87.9365,8.5,1.75,6.118,-9999.0,'1111122,1111122,1111122' 
DISL,ioos:station:DISL:MHPA:1,2009-11-02T10:00:00Z,30.6671,-87.9365,8.5,1.96,359.7,-9999.0,'1111122,1111122,1111122' 
DISL,ioos:station:DISL:MHPA:1,2009-11-02T10:30:00Z,30.6671,-87.9365,8.5,1.38,15.59,-9999.0,'1111122,1111122,1111122' 
DISL,ioos:station:DISL:MHPA:1,2009-11-02T11:00:00Z,30.6671,-87.9365,8.5,2.1,5.156,-9999.0,'1111122,1111122,1111122' 
DISL,ioos:station:DISL:MHPA:1,2009-11-02T11:30:00Z,30.6671,-87.9365,8.5,1.85,7.69,-9999.0,'1111122,1111122,1111122' 
DISL,ioos:station:DISL:MHPA:1,2009-11-02T12:00:00Z,30.6671,-87.9365,8.5,1.93,7.14,-9999.0,'1111122,1111122,1111122' 
DISL,ioos:station:DISL:MHPA:1,2009-11-02T12:30:00Z,30.6671,-87.9365,8.5,2.76,8.9,-9999.0,'1111122,1111122,1111122' 
DISL,ioos:station:DISL:MHPA:1,2009-11-02T13:00:00Z,30.6671,-87.9365,8.5,2.22,8.71,-9999.0,'1111122,1111122,1111122' 
DISL,ioos:station:DISL:MHPA:1,2009-11-02T13:30:00Z,30.6671,-87.9365,8.5,2.95,8.37,-9999.0,'1111122,1111122,1111122' 
DISL,ioos:station:DISL:MHPA:1,2009-11-02T14:00:00Z,30.6671,-87.9365,8.5,2.71,19.48,-9999.0,'1111122,1111122,1111122' 
DISL,ioos:station:DISL:MHPA:1,2009-11-02T14:30:00Z,30.6671,-87.9365,8.5,2.52,11.46,-9999.0,'1111122,1111122,1111122' 
DISL,ioos:station:DISL:MHPA:1,2009-11-02T15:00:00Z,30.6671,-87.9365,8.5,2.37,11.37,-9999.0,'1111122,1111122,1111122' 
DISL,ioos:station:DISL:MHPA:1,2009-11-02T15:30:00Z,30.6671,-87.9365,8.5,2.23,346.2,-9999.0,'1111122,1111122,1111122' 
DISL,ioos:station:DISL:MHPA:1,2009-11-02T16:00:00Z,30.6671,-87.9365,8.5,2.19,355.8,-9999.0,'1111122,1111122,1111122' 
DISL,ioos:station:DISL:MHPA:1,2009-11-02T16:30:00Z,30.6671,-87.9365,8.5,1.53,342.1,-9999.0,'1111122,1111122,1111122' 
DISL,ioos:station:DISL:MHPA:1,2009-11-02T17:00:00Z,30.6671,-87.9365,8.5,1.96,16.86,-9999.0,'1111122,1111122,1111122' 
DISL,ioos:station:DISL:MHPA:1,2009-11-02T17:30:00Z,30.6671,-87.9365,8.5,2.91,342.5,-9999.0,'1111122,1111122,1111122' 
DISL,ioos:station:DISL:MHPA:1,2009-11-02T18:00:00Z,30.6671,-87.9365,8.5,2.4,8.43,-9999.0,'1111122,1111122,1111122' 
DISL,ioos:station:DISL:MHPA:1,2009-11-02T18:30:00Z,30.6671,-87.9365,8.5,3.98,344.3,-9999.0,'1111122,1111122,1111122' 
DISL,ioos:station:DISL:MHPA:1,2009-11-02T19:00:00Z,30.6671,-87.9365,8.5,3.61,359.2,-9999.0,'1111122,1111122,1111122' 
DISL,ioos:station:DISL:MHPA:1,2009-11-02T19:30:00Z,30.6671,-87.9365,8.5,3.67,349.5,-9999.0,'1111122,1111122,1111122' 
DISL,ioos:station:DISL:MHPA:1,2009-11-02T20:00:00Z,30.6671,-87.9365,8.5,4.05,344.7,-9999.0,'1111122,1111122,1111122' 
DISL,ioos:station:DISL:MHPA:1,2009-11-02T20:30:00Z,30.6671,-87.9365,8.5,4.03,347.0,-9999.0,'1111122,1111122,1111122' 
DISL,ioos:station:DISL:MHPA:1,2009-11-02T21:00:00Z,30.6671,-87.9365,8.5,3.3,0.307,-9999.0,'1111122,1111122,1111122' 
DISL,ioos:station:DISL:MHPA:1,2009-11-02T21:30:00Z,30.6671,-87.9365,8.5,3.29,355.8,-9999.0,'1111122,1111122,1111122' 
DISL,ioos:station:DISL:MHPA:1,2009-11-02T22:00:00Z,30.6671,-87.9365,8.5,2.16,2.243,-9999.0,'1111122,1111122,1111122' 
DISL,ioos:station:DISL:MHPA:1,2009-11-02T22:30:00Z,30.6671,-87.9365,8.5,1.84,2.232,-9999.0,'1111122,1111122,1111122' 
DISL,ioos:station:DISL:MHPA:1,2009-11-02T23:00:00Z,30.6671,-87.9365,8.5,1.27,15.91,-9999.0,'1111122,1111122,1111122' 
DISL,ioos:station:DISL:MHPA:1,2009-11-02T23:30:00Z,30.6671,-87.9365,8.5,1.02,10.6,-9999.0,'1111122,1111122,1111122' 
DISL,ioos:station:DISL:MHPA:1,2009-11-03T00:00:00Z,30.6671,-87.9365,8.5,0.75,17.12,-9999.0,'1111122,1111122,1111122' 
DISL,ioos:station:DISL:MHPA:1,2009-11-03T00:30:00Z,30.6671,-87.9365,8.5,0.81,24.66,-9999.0,'1111122,1111122,1111122' 
DISL,ioos:station:DISL:MHPA:1,2009-11-03T01:00:00Z,30.6671,-87.9365,8.5,1.11,12.76,-9999.0,'1111122,1111122,1111122' 
DISL,ioos:station:DISL:MHPA:1,2009-11-03T01:30:00Z,30.6671,-87.9365,8.5,1.36,6.282,-9999.0,'1111122,1111122,1111122' 
DISL,ioos:station:DISL:MHPA:1,2009-11-03T02:00:00Z,30.6671,-87.9365,8.5,1.43,17.26,-9999.0,'1111122,1111122,1111122' 
DISL,ioos:station:DISL:MHPA:1,2009-11-03T02:30:00Z,30.6671,-87.9365,8.5,1.21,24.35,-9999.0,'1111122,1111122,1111122' 
DISL,ioos:station:DISL:MHPA:1,2009-11-03T03:00:00Z,30.6671,-87.9365,8.5,1.48,12.86,-9999.0,'1111122,1111122,1111122' 
DISL,ioos:station:DISL:MHPA:1,2009-11-03T03:30:00Z,30.6671,-87.9365,8.5,1.37,11.11,-9999.0,'1111122,1111122,1111122' 
DISL,ioos:station:DISL:MHPA:1,2009-11-03T04:00:00Z,30.6671,-87.9365,8.5,1.55,9.85,-9999.0,'1111122,1111122,1111122' 
DISL,ioos:station:DISL:MHPA:1,2009-11-03T04:30:00Z,30.6671,-87.9365,8.5,1.49,11.12,-9999.0,'1111122,1111122,1111122' 
DISL,ioos:station:DISL:MHPA:1,2009-11-03T05:00:00Z,30.6671,-87.9365,8.5,1.49,8.57,-9999.0,'1111122,1111122,1111122' 
DISL,ioos:station:DISL:MHPA:1,2009-11-03T05:30:00Z,30.6671,-87.9365,8.5,1.85,8.77,-9999.0,'1111122,1111122,1111122' 
DISL,ioos:station:DISL:MHPA:1,2009-11-03T06:00:00Z,30.6671,-87.9365,8.5,1.87,359.8,-9999.0,'1111122,1111122,1111122' 
DISL,ioos:station:DISL:MHPA:1,2009-11-03T06:30:00Z,30.6671,-87.9365,8.5,2.6,7.65,-9999.0,'1111122,1111122,1111122' 
DISL,ioos:station:DISL:MHPA:1,2009-11-03T07:00:00Z,30.6671,-87.9365,8.5,1.45,22.39,-9999.0,'1111122,1111122,1111122' 
DISL,ioos:station:DISL:MHPA:1,2009-11-03T07:30:00Z,30.6671,-87.9365,8.5,1.93,22.56,-9999.0,'1111122,1111122,1111122' 
DISL,ioos:station:DISL:MHPA:1,2009-11-03T08:00:00Z,30.6671,-87.9365,8.5,1.71,5.454,-9999.0,'1111122,1111122,1111122' 
DISL,ioos:station:DISL:MHPA:1,2009-11-03T08:30:00Z,30.6671,-87.9365,8.5,1.64,13.85,-9999.0,'1111122,1111122,1111122' 
DISL,ioos:station:DISL:MHPA:1,2009-11-03T09:00:00Z,30.6671,-87.9365,8.5,1.39,16.52,-9999.0,'1111122,1111122,1111122' 
DISL,ioos:station:DISL:MHPA:1,2009-11-03T09:30:00Z,30.6671,-87.9365,8.5,1.43,15.51,-9999.0,'1111122,1111122,1111122' 
DISL,ioos:station:DISL:MHPA:1,2009-11-03T10:00:00Z,30.6671,-87.9365,8.5,1.62,30.82,-9999.0,'1111122,1111122,1111122' 
DISL,ioos:station:DISL:MHPA:1,2009-11-03T10:30:00Z,30.6671,-87.9365,8.5,1.46,12.27,-9999.0,'1111122,1111122,1111122' 
DISL,ioos:station:DISL:MHPA:1,2009-11-03T11:00:00Z,30.6671,-87.9365,8.5,1.45,2.493,-9999.0,'1111122,1111122,1111122' 
DISL,ioos:station:DISL:MHPA:1,2009-11-03T11:30:00Z,30.6671,-87.9365,8.5,2.03,13.55,-9999.0,'1111122,1111122,1111122' 
DISL,ioos:station:DISL:MHPA:1,2009-11-03T12:00:00Z,30.6671,-87.9365,8.5,2.59,6.604,-9999.0,'1111122,1111122,1111122' 
DISL,ioos:station:DISL:MHPA:1,2009-11-03T12:30:00Z,30.6671,-87.9365,8.5,2.12,17.5,-9999.0,'1111122,1111122,1111122' 
DISL,ioos:station:DISL:MHPA:1,2009-11-03T13:00:00Z,30.6671,-87.9365,8.5,2.03,5.165,-9999.0,'1111122,1111122,1111122' 
DISL,ioos:station:DISL:MHPA:1,2009-11-03T13:30:00Z,30.6671,-87.9365,8.5,2.05,30.59,-9999.0,'1111122,1111122,1111122' 
DISL,ioos:station:DISL:MHPA:1,2009-11-03T14:00:00Z,30.6671,-87.9365,8.5,2.34,17.07,-9999.0,'1111122,1111122,1111122' 
DISL,ioos:station:DISL:MHPA:1,2009-11-03T14:30:00Z,30.6671,-87.9365,8.5,3.44,357.2,-9999.0,'1111122,1111122,1111122' 
DISL,ioos:station:DISL:MHPA:1,2009-11-03T15:00:00Z,30.6671,-87.9365,8.5,3.15,352.4,-9999.0,'1111122,1111122,1111122' 
DISL,ioos:station:DISL:MHPA:1,2009-11-03T15:30:00Z,30.6671,-87.9365,8.5,3.88,335.0,-9999.0,'1111122,1111122,1111122' 
DISL,ioos:station:DISL:MHPA:1,2009-11-03T16:00:00Z,30.6671,-87.9365,8.5,3.18,341.7,-9999.0,'1111122,1111122,1111122' 
DISL,ioos:station:DISL:MHPA:1,2009-11-03T16:30:00Z,30.6671,-87.9365,8.5,2.82,348.4,-9999.0,'1111122,1111122,1111122' 
DISL,ioos:station:DISL:MHPA:1,2009-11-03T17:00:00Z,30.6671,-87.9365,8.5,3.22,345.0,-9999.0,'1111122,1111122,1111122' 
DISL,ioos:station:DISL:MHPA:1,2009-11-03T17:30:00Z,30.6671,-87.9365,8.5,2.53,16.28,-9999.0,'1111122,1111122,1111122' 
DISL,ioos:station:DISL:MHPA:1,2009-11-03T18:00:00Z,30.6671,-87.9365,8.5,2.83,5.136,-9999.0,'1111122,1111122,1111122' 
DISL,ioos:station:DISL:MHPA:1,2009-11-03T18:30:00Z,30.6671,-87.9365,8.5,2.95,17.81,-9999.0,'1111122,1111122,1111122' 
DISL,ioos:station:DISL:MHPA:1,2009-11-03T19:00:00Z,30.6671,-87.9365,8.5,2.98,16.13,-9999.0,'1111122,1111122,1111122' 
DISL,ioos:station:DISL:MHPA:1,2009-11-03T19:30:00Z,30.6671,-87.9365,8.5,2.3,35.98,-9999.0,'1111122,1111122,1111122' 
DISL,ioos:station:DISL:MHPA:1,2009-11-03T20:00:00Z,30.6671,-87.9365,8.5,3.27,23.07,-9999.0,'1111122,1111122,1111122' 
DISL,ioos:station:DISL:MHPA:1,2009-11-03T20:30:00Z,30.6671,-87.9365,8.5,3.3,353.5,-9999.0,'1111122,1111122,1111122' 
DISL,ioos:station:DISL:MHPA:1,2009-11-03T21:00:00Z,30.6671,-87.9365,8.5,3.82,355.3,-9999.0,'1111122,1111122,1111122' 
DISL,ioos:station:DISL:MHPA:1,2009-11-03T21:30:00Z,30.6671,-87.9365,8.5,3.34,351.0,-9999.0,'1111122,1111122,1111122' 
DISL,ioos:station:DISL:MHPA:1,2009-11-03T22:00:00Z,30.6671,-87.9365,8.5,2.89,355.0,-9999.0,'1111122,1111122,1111122' 
DISL,ioos:station:DISL:MHPA:1,2009-11-03T22:30:00Z,30.6671,-87.9365,8.5,2.11,355.0,-9999.0,'1111122,1111122,1111122' 
DISL,ioos:station:DISL:MHPA:1,2009-11-03T23:00:00Z,30.6671,-87.9365,8.5,2.05,2.425,-9999.0,'1111122,1111122,1111122' 
DISL,ioos:station:DISL:MHPA:1,2009-11-03T23:30:00Z,30.6671,-87.9365,8.5,1.48,20.1,-9999.0,'1111122,1111122,1111122' 
DISL,ioos:station:DISL:MHPA:1,2009-11-04T00:00:00Z,30.6671,-87.9365,8.5,1.32,16.78,-9999.0,'1111122,1111122,1111122' 
DISL,ioos:station:DISL:MHPA:1,2009-11-04T00:30:00Z,30.6671,-87.9365,8.5,1.39,16.34,-9999.0,'1111122,1111122,1111122' 
DISL,ioos:station:DISL:MHPA:1,2009-11-04T01:00:00Z,30.6671,-87.9365,8.5,0.73,26.86,-9999.0,'1111122,1111122,1111122' 
DISL,ioos:station:DISL:MHPA:1,2009-11-04T01:30:00Z,30.6671,-87.9365,8.5,0.83,24.1,-9999.0,'1111122,1111122,1111122' 
DISL,ioos:station:DISL:MHPA:1,2009-11-04T02:00:00Z,30.6671,-87.9365,8.5,0.27,5.845,-9999.0,'1111122,1111122,1111122' 
DISL,ioos:station:DISL:MHPA:1,2009-11-04T02:30:00Z,30.6671,-87.9365,8.5,0.0,0.0,-9999.0,'1114422,1114422,1111122' 
DISL,ioos:station:DISL:MHPA:1,2009-11-04T03:00:00Z,30.6671,-87.9365,8.5,0.85,2.285,-9999.0,'1111122,1111122,1111122' 
DISL,ioos:station:DISL:MHPA:1,2009-11-04T03:30:00Z,30.6671,-87.9365,8.5,0.8,22.6,-9999.0,'1111122,1111122,1111122' 
DISL,ioos:station:DISL:MHPA:1,2009-11-04T04:00:00Z,30.6671,-87.9365,8.5,1.06,19.97,-9999.0,'1111122,1111122,1111122' 
DISL,ioos:station:DISL:MHPA:1,2009-11-04T04:30:00Z,30.6671,-87.9365,8.5,1.46,1.361,-9999.0,'1111122,1111122,1111122' 
DISL,ioos:station:DISL:MHPA:1,2009-11-04T05:00:00Z,30.6671,-87.9365,8.5,1.81,4.083,-9999.0,'1111122,1111122,1111122' 
DISL,ioos:station:DISL:MHPA:1,2009-11-04T05:30:00Z,30.6671,-87.9365,8.5,1.47,4.804,-9999.0,'1111122,1111122,1111122' 
DISL,ioos:station:DISL:MHPA:1,2009-11-04T06:00:00Z,30.6671,-87.9365,8.5,1.76,9.23,-9999.0,'1111122,1111122,1111122' 
DISL,ioos:station:DISL:MHPA:1,2009-11-04T06:30:00Z,30.6671,-87.9365,8.5,1.63,9.29,-9999.0,'1111122,1111122,1111122' 
DISL,ioos:station:DISL:MHPA:1,2009-11-04T07:00:00Z,30.6671,-87.9365,8.5,1.82,7.12,-9999.0,'1111122,1111122,1111122' 
DISL,ioos:station:DISL:MHPA:1,2009-11-04T07:30:00Z,30.6671,-87.9365,8.5,2.3,12.84,-9999.0,'1111122,1111122,1111122' 
DISL,ioos:station:DISL:MHPA:1,2009-11-04T08:00:00Z,30.6671,-87.9365,8.5,1.88,14.99,-9999.0,'1111122,1111122,1111122' 
DISL,ioos:station:DISL:MHPA:1,2009-11-04T08:30:00Z,30.6671,-87.9365,8.5,1.85,4.727,-9999.0,'1111122,1111122,1111122' 
DISL,ioos:station:DISL:MHPA:1,2009-11-04T09:00:00Z,30.6671,-87.9365,8.5,2.51,7.95,-9999.0,'1111122,1111122,1111122' 
DISL,ioos:station:DISL:MHPA:1,2009-11-04T09:30:00Z,30.6671,-87.9365,8.5,2.57,6.426,-9999.0,'1111122,1111122,1111122' 
DISL,ioos:station:DISL:MHPA:1,2009-11-04T10:00:00Z,30.6671,-87.9365,8.5,2.48,5.024,-9999.0,'1111122,1111122,1111122' 
DISL,ioos:station:DISL:MHPA:1,2009-11-04T10:30:00Z,30.6671,-87.9365,8.5,2.69,4.58,-9999.0,'1111122,1111122,1111122' 
DISL,ioos:station:DISL:MHPA:1,2009-11-04T11:00:00Z,30.6671,-87.9365,8.5,3.42,3.716,-9999.0,'1111122,1111122,1111122' 
DISL,ioos:station:DISL:MHPA:1,2009-11-04T11:30:00Z,30.6671,-87.9365,8.5,3.16,8.94,-9999.0,'1111122,1111122,1111122' 
DISL,ioos:station:DISL:MHPA:1,2009-11-04T12:00:00Z,30.6671,-87.9365,8.5,2.38,4.208,-9999.0,'1111122,1111122,1111122' 
DISL,ioos:station:DISL:MHPA:1,2009-11-04T12:30:00Z,30.6671,-87.9365,8.5,2.58,7.58,-9999.0,'1111122,1111122,1111122' 
DISL,ioos:station:DISL:MHPA:1,2009-11-04T13:00:00Z,30.6671,-87.9365,8.5,2.02,2.005,-9999.0,'1111122,1111122,1111122' 
DISL,ioos:station:DISL:MHPA:1,2009-11-04T13:30:00Z,30.6671,-87.9365,8.5,1.69,8.72,-9999.0,'1111122,1111122,1111122' 
DISL,ioos:station:DISL:MHPA:1,2009-11-04T14:00:00Z,30.6671,-87.9365,8.5,2.38,7.78,-9999.0,'1111122,1111122,1111122' 
DISL,ioos:station:DISL:MHPA:1,2009-11-04T14:30:00Z,30.6671,-87.9365,8.5,1.95,11.79,-9999.0,'1111122,1111122,1111122' 
DISL,ioos:station:DISL:MHPA:1,2009-11-04T15:00:00Z,30.6671,-87.9365,8.5,1.97,18.38,-9999.0,'1111122,1111122,1111122' 
DISL,ioos:station:DISL:MHPA:1,2009-11-04T15:30:00Z,30.6671,-87.9365,8.5,1.59,6.062,-9999.0,'1111122,1111122,1111122' 
DISL,ioos:station:DISL:MHPA:1,2009-11-04T16:00:00Z,30.6671,-87.9365,8.5,1.42,24.63,-9999.0,'1111122,1111122,1111122' 
DISL,ioos:station:DISL:MHPA:1,2009-11-04T16:30:00Z,30.6671,-87.9365,8.5,2.21,55.42,-9999.0,'1111122,1111122,1111122' 
DISL,ioos:station:DISL:MHPA:1,2009-11-04T17:00:00Z,30.6671,-87.9365,8.5,1.43,81.4,-9999.0,'1111122,1111122,1111122' 
DISL,ioos:station:DISL:MHPA:1,2009-11-04T17:30:00Z,30.6671,-87.9365,8.5,2.0,41.9,-9999.0,'1111122,1111122,1111122' 
DISL,ioos:station:DISL:MHPA:1,2009-11-04T18:00:00Z,30.6671,-87.9365,8.5,1.99,34.29,-9999.0,'1111122,1111122,1111122' 
DISL,ioos:station:DISL:MHPA:1,2009-11-04T18:30:00Z,30.6671,-87.9365,8.5,1.66,50.67,-9999.0,'1111122,1111122,1111122' 
DISL,ioos:station:DISL:MHPA:1,2009-11-04T19:00:00Z,30.6671,-87.9365,8.5,3.33,352.3,-9999.0,'1111122,1111122,1111122' 
DISL,ioos:station:DISL:MHPA:1,2009-11-04T19:30:00Z,30.6671,-87.9365,8.5,3.08,342.4,-9999.0,'1111122,1111122,1111122' 
DISL,ioos:station:DISL:MHPA:1,2009-11-04T20:00:00Z,30.6671,-87.9365,8.5,3.33,347.7,-9999.0,'1111122,1111122,1111122' 
DISL,ioos:station:DISL:MHPA:1,2009-11-04T20:30:00Z,30.6671,-87.9365,8.5,3.36,350.0,-9999.0,'1111122,1111122,1111122' 
DISL,ioos:station:DISL:MHPA:1,2009-11-04T21:00:00Z,30.6671,-87.9365,8.5,2.88,352.7,-9999.0,'1111122,1111122,1111122' 
DISL,ioos:station:DISL:MHPA:1,2009-11-04T21:30:00Z,30.6671,-87.9365,8.5,2.58,346.7,-9999.0,'1111122,1111122,1111122' 
DISL,ioos:station:DISL:MHPA:1,2009-11-04T22:00:00Z,30.6671,-87.9365,8.5,2.53,356.1,-9999.0,'1111122,1111122,1111122' 
DISL,ioos:station:DISL:MHPA:1,2009-11-04T22:30:00Z,30.6671,-87.9365,8.5,1.7,359.2,-9999.0,'1111122,1111122,1111122' 
DISL,ioos:station:DISL:MHPA:1,2009-11-04T23:00:00Z,30.6671,-87.9365,8.5,1.43,7.99,-9999.0,'1111122,1111122,1111122' 
DISL,ioos:station:DISL:MHPA:1,2009-11-04T23:30:00Z,30.6671,-87.9365,8.5,1.23,16.95,-9999.0,'1111122,1111122,1111122' 
DISL,ioos:station:DISL:MHPA:1,2009-11-05T00:00:00Z,30.6671,-87.9365,8.5,1.38,22.98,-9999.0,'1111122,1111122,1111122' 
DISL,ioos:station:DISL:MHPA:1,2009-11-05T00:30:00Z,30.6671,-87.9365,8.5,1.16,29.55,-9999.0,'1111122,1111122,1111122' 
DISL,ioos:station:DISL:MHPA:1,2009-11-05T01:00:00Z,30.6671,-87.9365,8.5,1.28,28.62,-9999.0,'1111122,1111122,1111122' 
DISL,ioos:station:DISL:MHPA:1,2009-11-05T01:30:00Z,30.6671,-87.9365,8.5,1.24,27.64,-9999.0,'1111122,1111122,1111122' 
DISL,ioos:station:DISL:MHPA:1,2009-11-05T02:00:00Z,30.6671,-87.9365,8.5,1.22,17.15,-9999.0,'1111122,1111122,1111122' 
DISL,ioos:station:DISL:MHPA:1,2009-11-05T02:30:00Z,30.6671,-87.9365,8.5,1.49,11.3,-9999.0,'1111122,1111122,1111122' 
DISL,ioos:station:DISL:MHPA:1,2009-11-05T03:00:00Z,30.6671,-87.9365,8.5,1.42,8.41,-9999.0,'1111122,1111122,1111122' 
DISL,ioos:station:DISL:MHPA:1,2009-11-05T03:30:00Z,30.6671,-87.9365,8.5,1.53,7.98,-9999.0,'1111122,1111122,1111122' 
DISL,ioos:station:DISL:MHPA:1,2009-11-05T04:00:00Z,30.6671,-87.9365,8.5,1.74,5.142,-9999.0,'1111122,1111122,1111122' 
DISL,ioos:station:DISL:MHPA:1,2009-11-05T04:30:00Z,30.6671,-87.9365,8.5,2.45,0.83,-9999.0,'1111122,1111122,1111122' 
DISL,ioos:station:DISL:MHPA:1,2009-11-05T05:00:00Z,30.6671,-87.9365,8.5,2.28,6.959,-9999.0,'1111122,1111122,1111122' 
DISL,ioos:station:DISL:MHPA:1,2009-11-05T05:30:00Z,30.6671,-87.9365,8.5,2.09,15.08,-9999.0,'1111122,1111122,1111122' 
DISL,ioos:station:DISL:MHPA:1,2009-11-05T06:00:00Z,30.6671,-87.9365,8.5,1.8,13.76,-9999.0,'1111122,1111122,1111122' 
DISL,ioos:station:DISL:MHPA:1,2009-11-05T06:30:00Z,30.6671,-87.9365,8.5,1.49,17.64,-9999.0,'1111122,1111122,1111122' 
DISL,ioos:station:DISL:MHPA:1,2009-11-05T07:00:00Z,30.6671,-87.9365,8.5,1.81,1.476,-9999.0,'1111122,1111122,1111122' 
DISL,ioos:station:DISL:MHPA:1,2009-11-05T07:30:00Z,30.6671,-87.9365,8.5,2.18,4.697,-9999.0,'1111122,1111122,1111122' 
DISL,ioos:station:DISL:MHPA:1,2009-11-05T08:00:00Z,30.6671,-87.9365,8.5,2.1,357.7,-9999.0,'1111122,1111122,1111122' 
DISL,ioos:station:DISL:MHPA:1,2009-11-05T08:30:00Z,30.6671,-87.9365,8.5,1.88,6.677,-9999.0,'1111122,1111122,1111122' 
DISL,ioos:station:DISL:MHPA:1,2009-11-05T09:00:00Z,30.6671,-87.9365,8.5,1.97,7.07,-9999.0,'1111122,1111122,1111122' 
DISL,ioos:station:DISL:MHPA:1,2009-11-05T09:30:00Z,30.6671,-87.9365,8.5,1.75,7.4,-9999.0,'1111122,1111122,1111122' 
DISL,ioos:station:DISL:MHPA:1,2009-11-05T10:00:00Z,30.6671,-87.9365,8.5,1.56,7.76,-9999.0,'1111122,1111122,1111122' 
DISL,ioos:station:DISL:MHPA:1,2009-11-05T10:30:00Z,30.6671,-87.9365,8.5,1.49,5.647,-9999.0,'1111122,1111122,1111122' 
DISL,ioos:station:DISL:MHPA:1,2009-11-05T11:00:00Z,30.6671,-87.9365,8.5,1.99,14.32,-9999.0,'1111122,1111122,1111122' 
DISL,ioos:station:DISL:MHPA:1,2009-11-05T11:30:00Z,30.6671,-87.9365,8.5,1.98,17.57,-9999.0,'1111122,1111122,1111122' 
DISL,ioos:station:DISL:MHPA:1,2009-11-05T12:00:00Z,30.6671,-87.9365,8.5,1.55,14.42,-9999.0,'1111122,1111122,1111122' 
DISL,ioos:station:DISL:MHPA:1,2009-11-05T12:30:00Z,30.6671,-87.9365,8.5,2.02,6.971,-9999.0,'1111122,1111122,1111122' 
DISL,ioos:station:DISL:MHPA:1,2009-11-05T13:00:00Z,30.6671,-87.9365,8.5,2.56,357.8,-9999.0,'1111122,1111122,1111122' 
DISL,ioos:station:DISL:MHPA:1,2009-11-05T13:30:00Z,30.6671,-87.9365,8.5,2.42,355.2,-9999.0,'1111122,1111122,1111122' 
DISL,ioos:station:DISL:MHPA:1,2009-11-05T14:00:00Z,30.6671,-87.9365,8.5,2.26,5.983,-9999.0,'1111122,1111122,1111122' 
DISL,ioos:station:DISL:MHPA:1,2009-11-05T14:30:00Z,30.6671,-87.9365,8.5,1.86,7.37,-9999.0,'1111122,1111122,1111122' 
DISL,ioos:station:DISL:MHPA:1,2009-11-05T15:00:00Z,30.6671,-87.9365,8.5,2.96,24.68,-9999.0,'1111122,1111122,1111122' 
DISL,ioos:station:DISL:MHPA:1,2009-11-05T15:30:00Z,30.6671,-87.9365,8.5,3.81,352.1,-9999.0,'1111122,1111122,1111122' 
DISL,ioos:station:DISL:MHPA:1,2009-11-05T16:00:00Z,30.6671,-87.9365,8.5,3.95,21.57,-9999.0,'1111122,1111122,1111122' 
DISL,ioos:station:DISL:MHPA:1,2009-11-05T16:30:00Z,30.6671,-87.9365,8.5,3.94,13.9,-9999.0,'1111122,1111122,1111122' 
DISL,ioos:station:DISL:MHPA:1,2009-11-05T17:00:00Z,30.6671,-87.9365,8.5,4.08,22.44,-9999.0,'1111122,1111122,1111122' 
DISL,ioos:station:DISL:MHPA:1,2009-11-05T17:30:00Z,30.6671,-87.9365,8.5,4.63,15.79,-9999.0,'1111122,1111122,1111122' 
DISL,ioos:station:DISL:MHPA:1,2009-11-05T18:00:00Z,30.6671,-87.9365,8.5,4.2,7.41,-9999.0,'1111122,1111122,1111122' 
DISL,ioos:station:DISL:MHPA:1,2009-11-05T18:30:00Z,30.6671,-87.9365,8.5,3.49,13.42,-9999.0,'1111122,1111122,1111122' 
DISL,ioos:station:DISL:MHPA:1,2009-11-05T19:00:00Z,30.6671,-87.9365,8.5,6.24,0.34,-9999.0,'1111122,1111122,1111122' 
DISL,ioos:station:DISL:MHPA:1,2009-11-05T19:30:00Z,30.6671,-87.9365,8.5,3.66,14.78,-9999.0,'1111122,1111122,1111122' 
DISL,ioos:station:DISL:MHPA:1,2009-11-05T20:00:00Z,30.6671,-87.9365,8.5,4.47,357.2,-9999.0,'1111122,1111122,1111122' 
DISL,ioos:station:DISL:MHPA:1,2009-11-05T20:30:00Z,30.6671,-87.9365,8.5,3.41,10.47,-9999.0,'1111122,1111122,1111122' 
DISL,ioos:station:DISL:MHPA:1,2009-11-05T21:00:00Z,30.6671,-87.9365,8.5,4.2,7.77,-9999.0,'1111122,1111122,1111122' 
DISL,ioos:station:DISL:MHPA:1,2009-11-05T21:30:00Z,30.6671,-87.9365,8.5,2.76,12.93,-9999.0,'1111122,1111122,1111122' 
DISL,ioos:station:DISL:MHPA:1,2009-11-05T22:00:00Z,30.6671,-87.9365,8.5,2.81,14.31,-9999.0,'1111122,1111122,1111122' 
DISL,ioos:station:DISL:MHPA:1,2009-11-05T22:30:00Z,30.6671,-87.9365,8.5,1.93,17.11,-9999.0,'1111122,1111122,1111122' 
DISL,ioos:station:DISL:MHPA:1,2009-11-05T23:00:00Z,30.6671,-87.9365,8.5,1.51,19.4,-9999.0,'1111122,1111122,1111122' 
DISL,ioos:station:DISL:MHPA:1,2009-11-05T23:30:00Z,30.6671,-87.9365,8.5,1.3,25.98,-9999.0,'1111122,1111122,1111122' 
DISL,ioos:station:DISL:MHPA:1,2009-11-06T00:00:00Z,30.6671,-87.9365,8.5,0.66,18.11,-9999.0,'1111122,1111122,1111122' 
DISL,ioos:station:DISL:MHPA:1,2009-11-06T00:30:00Z,30.6671,-87.9365,8.5,1.55,20.61,-9999.0,'1111122,1111122,1111122' 
DISL,ioos:station:DISL:MHPA:1,2009-11-06T01:00:00Z,30.6671,-87.9365,8.5,1.2,14.31,-9999.0,'1111122,1111122,1111122' 
DISL,ioos:station:DISL:MHPA:1,2009-11-06T01:30:00Z,30.6671,-87.9365,8.5,1.25,4.765,-9999.0,'1111122,1111122,1111122' 
DISL,ioos:station:DISL:MHPA:1,2009-11-06T02:00:00Z,30.6671,-87.9365,8.5,1.1,1.043,-9999.0,'1111122,1111122,1111122' 
DISL,ioos:station:DISL:MHPA:1,2009-11-06T02:30:00Z,30.6671,-87.9365,8.5,1.41,9.37,-9999.0,'1111122,1111122,1111122' 
DISL,ioos:station:DISL:MHPA:1,2009-11-06T03:00:00Z,30.6671,-87.9365,8.5,1.33,9.91,-9999.0,'1111122,1111122,1111122' 
DISL,ioos:station:DISL:MHPA:1,2009-11-06T03:30:00Z,30.6671,-87.9365,8.5,0.81,18.07,-9999.0,'1111122,1111122,1111122' 
DISL,ioos:station:DISL:MHPA:1,2009-11-06T04:00:00Z,30.6671,-87.9365,8.5,1.76,8.69,-9999.0,'1111122,1111122,1111122' 
DISL,ioos:station:DISL:MHPA:1,2009-11-06T04:30:00Z,30.6671,-87.9365,8.5,0.99,20.96,-9999.0,'1111122,1111122,1111122' 
DISL,ioos:station:DISL:MHPA:1,2009-11-06T05:00:00Z,30.6671,-87.9365,8.5,1.28,10.82,-9999.0,'1111122,1111122,1111122' 